Location: Indian Hills
(32.9760°N, 85.9450°W)
Time: 04:35:37
(UTC+00:00)

Cosmos 1634 Rocket - Pass Details

Date: 09 December 2019
Orbit: 960 x 991 km, 82.9° (Epoch: 23 January)

Event Time Altitude Azimuth Distance (km) Brightness Sun altitude
Rises 11:10:32 0° 190° (S) 3,661 7.1 -17.3°
Reaches altitude 10° 11:13:03 10° 192° (SSW) 2,713 6.4 -16.8°
Maximum altitude 11:19:14 72° 276° (W) 1,019 3.9 -15.5°
Drops below altitude 10° 11:25:26 10° 1° (N) 2,707 6.2 -14.3°
Sets 11:27:57 0° 4° (N) 3,654 6.9 -13.8°
